This is the latest recevied weather packets stored in our database for station/object K4AMF. If no packets are shown the sender has not sent any weather packets the latest 10 day(s).
| Time | Temp. | Humidity | Pressure | Rain* | Wind** | Luminosity | Snow |
|---|---|---|---|---|---|---|---|
| 1777936899 | 22.78° C | 64% | 1016.7 hPa | 0 mm | - | 29 W/m² | - |
| 1777936596 | 23.33° C | 64% | 1016.9 hPa | 0 mm | - | 33 W/m² | - |
| 1777936292 | 23.33° C | 63% | 1016.7 hPa | 0 mm | - | 39 W/m² | - |
| 1777935988 | 23.33° C | 63% | 1016.5 hPa | 0 mm | - | 37 W/m² | - |
| 1777935687 | 23.33° C | 62% | 1016.6 hPa | 0 mm | - | 39 W/m² | - |
| 1777935385 | 23.89° C | 62% | 1016.6 hPa | 0 mm | - | 41 W/m² | - |
| 1777935081 | 23.89° C | 62% | 1016.6 hPa | 0 mm | - | 48 W/m² | - |
| 1777934778 | 23.89° C | 61% | 1016.8 hPa | 0 mm | - | 47 W/m² | - |
| 1777934475 | 23.89° C | 61% | 1016.6 hPa | 0 mm | - | 47 W/m² | - |
| 1777934172 | 24.44° C | 60% | 1016.6 hPa | 0 mm | - | 64 W/m² | - |
| 1777933868 | 24.44° C | 59% | 1016.6 hPa | 0 mm | - | 114 W/m² | - |
| 1777933565 | 24.44° C | 58% | 1016.5 hPa | 0 mm | - | 197 W/m² | - |
| 1777933262 | 24.44° C | 57% | 1016.4 hPa | 0 mm | - | 206 W/m² | - |
| 1777932959 | 24.44° C | 57% | 1016.7 hPa | 0 mm | - | 224 W/m² | - |
| 1777932655 | 24.44° C | 58% | 1016.8 hPa | 0 mm | - | 246 W/m² | - |
| 1777932352 | 24.44° C | 57% | 1016.8 hPa | 0 mm | - | 252 W/m² | - |
| 1777932049 | 24.44° C | 57% | 1016.8 hPa | 0 mm | - | 244 W/m² | - |
| 1777931746 | 24.44° C | 57% | 1016.9 hPa | 0 mm | - | 283 W/m² | - |
| 1777931443 | 25° C | 55% | 1016.8 hPa | 0 mm | - | 309 W/m² | - |
| 1777931139 | 25° C | 55% | 1016.5 hPa | 0 mm | - | 308 W/m² | - |
| 1777930836 | 25° C | 54% | 1016.5 hPa | 0 mm | - | 342 W/m² | - |
| 1777930532 | 24.44° C | 54% | 1016.7 hPa | 0 mm | - | 356 W/m² | - |
| 1777930230 | 24.44° C | 55% | 1016.6 hPa | 0 mm | - | 385 W/m² | - |
| 1777929925 | 25° C | 53% | 1016.9 hPa | 0 mm | - | 393 W/m² | - |
| 1777929623 | 25° C | 53% | 1016.6 hPa | 0 mm | - | 398 W/m² | - |
* Rain latest hour (hover to see other rain measurements)
** Current wind speed in m/s (hover to see current wind gust speed)